Retour au catalogue

THORAD DELTA 1 DEB

ActifLEO
NORAD 8169·DEBRIS·🇺🇸 United States

Lancé Nov 15, 1974 depuis Vandenberg Space Force Base

Loading…

Prochains Passages (prochaines 24 heures)

TLE

FraisSource: Space-Track

Époque: Sep 13, 2026, 23:12 UTC

1  8169U 74089AK  26256.96678330  .00000528  00000-0  20225-2 0  9993
2  8169 102.5178 260.9323 0125100 330.3308  56.6543 12.94575241412268

Suivez THORAD DELTA 1 DEB en temps réel avec AllMySat

Download on the App Store